Dewpoint
63 63 62 61 61 61 61 61 61 61 61 61 62 62 62 62 63 63 63 63 63 63 63 64 63 63 63 62 62 63 63 63 62 62 62 61 61 61 62 61 60 61
62 62 62 62 61 61 61 61 61 61 62 62 62 61 62 61 62 62 62 63 63 63 63 63 63 63 63 62 62 62 63 62 62 63 61 60 60 61 61 61 61 61
62 61 61 62 62 61 61 61 61 61 61 61 61 60 61 61 61 61 61 61 62 63 63 63 62 63 63 63 62 62 62 62 61 62 61 61 61 61 61 61 61 61
61 60 61 62 62 62 61 61 61 61 61 60 60 60 60 60 60 60 60 63 60 61 62 62 62 62 62 62 61 61 61 62 62 61 61 61 61 60 60 60 60 59
61 60 61 62 61 61 61 60 60 60 60 60 59 59 59 58 58 58 59 60 60 60 61 62 62 62 62 62 62 61 61 61 61 61 60 60 60 60 59 60 59 60
61 61 61 60 61 61 60 59 60 60 59 59 59 59 59 58 58 58 58 58 59 59 60 60 61 61 62 61 61 61 61 60 61 61 60 60 60 60 61 60 60 60
60 60 59 60 60 60 59 59 59 59 58 59 59 58 58 58 58 58 57 57 58 59 59 59 59 60 61 60 60 60 60 60 60 61 61 59 59 60 61 61 61 61
59 59 59 60 60 59 59 59 57 58 58 58 57 57 58 57 56 57 57 57 57 57 58 59 59 59 60 61 61 60 60 61 60 61 60 59 58 59 60 61 61 60
60 59 59 59 59 59 58 57 57 57 58 56 55 56 57 56 55 55 55 56 55 56 57 58 58 58 59 60 61 60 60 60 60 60 59 59 59 59 60 61 60 60
59 59 59 59 58 58 57 57 57 57 57 55 56 57 56 53 53 53 55 54 55 56 57 57 57 57 57 59 59 60 60 60 60 60 59 59 59 59 60 61 60 59
58 58 58 58 58 57 57 56 57 56 55 55 56 56 53 52 53 54 55 54 55 54 56 56 56 56 56 57 57 58 58 59 60 60 59 58 59 58 61 60 59 59
58 57 58 58 57 57 56 56 56 55 55 55 55 52 51 52 52 52 53 54 54 54 55 54 54 55 55 55 55 56 56 56 57 58 57 56 57 58 59 59 59 59
59 57 57 58 58 57 57 56 56 56 54 54 53 51 51 52 51 51 52 51 50 50 50 49 48 48 49 51 53 55 55 55 54 55 55 56 56 58 59 59 59 59
59 59 58 58 58 57 56 56 56 55 54 54 51 51 53 51 51 53 52 52 50 49 49 48 46 45 45 47 50 54 55 54 54 53 53 54 55 56 57 57 58 57
59 59 59 58 58 57 56 56 56 56 54 51 51 52 53 51 52 53 51 50 50 48 47 47 45 45 44 44 47 52 54 54 53 53 50 50 51 53 55 56 56 57
59 58 58 59 58 57 56 56 56 54 52 51 52 51 49 51 53 52 50 48 46 45 44 44 43 43 42 41 42 47 54 55 54 53 53 52 51 51 51 52 53 53
58 58 58 58 58 58 56 56 54 52 51 51 50 50 53 53 53 51 50 47 45 43 41 41 41 41 39 38 38 41 50 53 55 53 53 52 51 50 49 48 48 48
57 58 58 58 58 57 57 55 52 50 50 50 52 53 53 52 50 49 47 45 43 40 39 39 38 39 37 38 38 38 42 50 53 54 53 54 52 52 49 47 47 50
58 58 57 57 57 57 57 56 54 53 53 54 53 52 50 49 48 45 43 41 39 37 36 36 36 37 36 37 37 38 38 47 54 54 53 52 52 52 51 51 53 53
57 57 56 56 57 56 56 57 56 54 54 53 52 50 48 47 45 43 41 39 37 36 35 35 35 37 36 36 37 38 39 46 54 53 53 53 53 54 55 55 54 52
53 54 54 54 55 54 55 54 54 53 52 51 50 49 47 45 43 42 41 40 37 35 34 34 36 36 35 36 37 39 42 47 54 55 54 54 56 56 56 55 52 47
48 50 50 50 50 50 50 50 51 51 50 49 48 48 47 45 44 42 40 38 37 35 33 33 34 35 35 37 38 39 43 47 51 54 53 52 51 52 54 52 45 40
47 47 48 48 48 48 48 48 48 48 48 48 47 47 47 46 44 41 40 39 38 36 34 33 33 35 36 38 39 40 43 46 47 49 49 46 44 43 44 44 42 39
46 47 46 47 47 47 47 48 48 48 47 46 45 45 45 45 45 45 44 42 40 38 35 33 33 36 36 37 38 38 40 41 41 43 44 43 41 40 39 40 43 44
46 46 46 47 47 47 48 47 47 48 48 48 47 46 45 45 45 44 44 44 43 39 39 34 34 36 36 36 36 37 38 37 38 40 41 43 43 41 40 38 37 39
46 46 46 46 46 47 48 48 48 48 48 48 48 48 47 47 46 45 44 44 43 39 37 35 35 35 36 36 36 36 36 37 38 39 39 41 44 43 41 39 38 37